Back to catalog

BREEZE-M R/B

AliveHEO
NORAD 35697·ROCKET BODY·🇷🇺 Russia

Launched Aug 11, 2009 from Baikonur Cosmodrome

Loading…

Next Passes (next 24 hours)

TLE

AgingSource: Space-Track

Epoch: Aug 29, 2026, 08:12 UTC

1 35697U 09042B   26241.34221635 -.00000072  00000-0  00000-0 0  9996
2 35697   6.6705 307.0710 3148227 290.7761  38.6678  1.59998532 99303

Track BREEZE-M R/B in real time with AllMySat

Download on the App Store